Regional Weather Roundup
Issued by NWS

Home | Current Version | Previous Version | Text Only | Print | Product List | Glossary Off
Versions: 1 2 3 4 5 6 7 8 9 10 11 12 13 14 15 16 17 18 19 20 21 22 23 24 25 26 27 28 29 30 31 32 33 34 35 36 37 38 39 40 41 42 43 44 45 46 47 48 49 50

000
ASUS43 KLOT 282300
RWRIL

ILLINOIS REGIONAL WEATHER ROUNDUP
NATIONAL WEATHER SERVICE CHICAGO/ROMEOVILLE IL
500 PM CST SAT FEB 28 2015

NOTE: "FAIR" INDICATES FEW OR NO CLOUDS BELOW 12,000 FEET WITH NO
SIGNIFICANT WEATHER AND/OR OBSTRUCTIONS TO VISIBILITY.

* THESE STATIONS ARE NOT UNDER NWS QUALITY CONTROL. THEY ALSO MAY NOT
  REPORT WEATHER SUCH AS PRECIPITATION OR FOG.

ILZ001-002-007-009-015-016-024-010000-
NORTHWEST ILLINOIS

CITY           SKY/WX    TMP DP  RH WIND       PRES   REMARKS
MOLINE         CLOUDY    18   6  59 E9        30.51F WCI   7
STERLING*      MOCLDY    18   9  68 E7        30.52S WCI   8
$$

ILZ003-004-008-010-011-017-018-010000-
NORTH CENTRAL ILLINOIS

CITY           SKY/WX    TMP DP  RH WIND       PRES   REMARKS
ROCKFORD       CLOUDY    17   3  54 SE9       30.53F WCI   6
$$

ILZ005-006-012>014-019>023-010000-
NORTHEAST ILLINOIS

CITY           SKY/WX    TMP DP  RH WIND       PRES   REMARKS
CHICAGO-OHARE  CLOUDY    19   2  47 S7        30.54F WCI  10
CHICAGO-MIDWAY MOCLDY    23   3  42 SE9       30.55F WCI  13
AURORA         PTCLDY    20   5  52 SE9       30.53F WCI   9
WAUKEGAN       CLEAR     18   7  62 SE8       30.54F WCI   8
DUPAGE AIRPORT PTCLDY    19   4  51 S7        30.52F WCI  10
WHEELING       PTCLDY    21  -1  38 S8        30.56F WCI  11
NORTHERLY ISL    N/A     20   9  62 E8          N/A  WCI  10
$$

LMZ740>746-010000-
SOUTHERN LAKE MICHIGAN

STATION/POSITION SKY/WX   TEMP    WIND        PRES    VSBY  WAVE
                          AIR SEA DIR/SP/G                  HT/PER
                          (F)     (DEG/KT/KT) (MB)    (MI)  (FT/S)
WAUKEGAN HARBOR            20     140/  9/ 12   N/A
HARRISON CRIB              19     110/ 11/ 13   N/A
BURNHAM HARBOR             20      90/  7/ 10   N/A
CALUMET HARBOR             21     120/  3/  6 1033.9F
MICHIGAN CITY              20     120/  7/  9   N/A
$$

ILZ025>027-034>036-040-047-049-050-058-095>099-010000-
WEST-CENTRAL ILLINOIS

CITY           SKY/WX    TMP DP  RH WIND       PRES   REMARKS
QUINCY         SNOW      20  17  88 E6        30.47F VSB 1/2 WCI  12
$$

ILZ028>032-037-038-041>044-048-051>054-059>061-010000-
CENTRAL ILLINOIS

CITY           SKY/WX    TMP DP  RH WIND       PRES   REMARKS
DECATUR        LGT SNOW  22  17  81 E10       30.51F VSB 1   WCI  11
PEORIA         LGT SNOW  22  15  75 S8        30.51F WCI  12
SPRINGFIELD    LGT SNOW  23  18  81 SE7       30.51F VSB 3/4 WCI  15
TAYLORVILLE    NOT AVBL
$$

ILZ033-039-045-046-055>057-062-063-010000-
EAST-CENTRAL ILLINOIS

CITY           SKY/WX    TMP DP  RH WIND       PRES   REMARKS
CHAMPAIGN      LGT SNOW  22  14  71 E9        30.51F WCI  12
MATTOON        LGT SNOW  22  17  81 SE8       30.49F VSB 3/4 WCI  12
$$

ILZ079-100>102-010000-
SOUTHWEST ILLINOIS

CITY           SKY/WX    TMP DP  RH WIND       PRES   REMARKS
BELLEVILLE     LGT SNOW  25  25 100 E6        30.47F VSB 1   WCI  18
CAHOKIA*       LGT SNOW  26  23  88 E3        30.48F VSB 3/4
$$

ILZ064>066-069>071-074>076-080>082-084>086-088>090-092>094-010000-
SOUTH-CENTRAL ILLINOIS

CITY           SKY/WX    TMP DP  RH WIND       PRES   REMARKS
CARBONDALE     CLOUDY    30  18  60 NE6       30.46F WCI  24
MT. VERNON     CLOUDY    27  21  80 NE6       30.49F VSB 1/2 WCI  20
$$

ILZ067-068-072-073-078-083-087-091-010000-
SOUTHEAST ILLINOIS

CITY           SKY/WX    TMP DP  RH WIND       PRES   REMARKS
LAWRENCEVILLE  CLOUDY    30  15  53 NE6       30.53S WCI  24
$$

ABBREVIATIONS USED IN REMARKS
   TC - TEMPERATURE IN CELSIUS
  WCI - WIND CHILL INDEX
   HX - HEAT INDEX
  VSB - VISIBILITY
$$




USA.gov is the U.S. government's official web portal to all federal, state and local government web resources and services.